Regional Weather Roundup
Issued by NWS Green Bay, WI

Home | Current Version | Previous Version | Graphics & Text | Print | Product List | Glossary Off
Versions: 1 2 3 4 5 6 7 8 9 10 11 12 13 14 15 16 17 18 19 20 21 22 23 24 25 26 27 28 29 30 31 32 33 34 35 36 37 38 39 40 41 42 43 44 45 46 47 48 49 50

000
ASUS43 KGRB 280810
RWRGRB

NORTH-CENTRAL AND NORTHEAST WISCONSIN REGIONAL WEATHER ROUNDUP
NATIONAL WEATHER SERVICE GREEN BAY WI
200 AM CST WED JAN 28 2015

WIZ005-009-010>012-018-019-280900-
NORTH CENTRAL WISCONSIN

CITY           SKY/WX    TMP DP  RH WIND       PRES   REMARKS
IRONWOOD       CLOUDY    25  19  80 S6        30.10R
MANITOWISH WTR CLOUDY    22  20  93 S6        30.11S
ARBOR VITAE    CLOUDY    23  20  89 S8        30.12R
EAGLE RIVER    CLOUDY    22  18  86 S5        30.11F
LAND O LAKES   CLOUDY    22  20  91 S6        30.12S
RHINELANDER    CLOUDY    22  20  92 S7        30.13F FOG
PHILLIPS       CLOUDY    23  21  93 S6        30.12R FOG
ANTIGO         CLOUDY    21  18  89 S8        30.17R
TOMAHAWK       CLOUDY    22  20  93 CALM      30.15R FOG
MERRILL        CLOUDY    23  22  95 S3        30.16S FOG
$$

WIZ013-073-280900-
NORTHEAST WISCONSIN

CITY           SKY/WX    TMP DP  RH WIND       PRES   REMARKS
IRON MOUNTAIN  CLOUDY    22  17  81 S6        30.17F
MARINETTE      CLOUDY    19  14  79 SW3       30.24F
OCONTO         CLOUDY    13  12  95 CALM      30.25F
$$

WIZ017-030-035>037-045-280900-
CENTRAL WISCONSIN

CITY           SKY/WX    TMP DP  RH WIND       PRES   REMARKS
MEDFORD        CLOUDY    23  21  93 S9        30.13F FOG
WAUSAU         CLOUDY    23  19  85 SE8       30.16F
MOSINEE        CLOUDY    23  21  93 SE6       30.17F
MARSHFIELD     CLOUDY    24  21  88 S8        30.16F FOG
WISC RAPIDS    CLOUDY    24  19  81 SE5       30.20S
STEVENS POINT  CLOUDY    22  18  82 SE5       30.19F
WAUPACA        CLOUDY    25  19  80 CALM      30.23S
SHAWANO        CLOUDY    25  18  74 CALM      30.23S
CLINTONVILLE   CLOUDY    23  18  80 CALM      30.23S
$$

WIZ038-039-048-051-280900-
FOX VALLEY

CITY           SKY/WX    TMP DP  RH WIND       PRES   REMARKS
NWS GREEN BAY  CLOUDY    17  14  88 CALM      30.24F
APPLETON       CLOUDY    23  18  80 S6        30.23S
OSHKOSH        MOCLDY    23  17  78 S5        30.24R
FOND DU LAC    MOCLDY    23  17  78 S3        30.25R
$$

WIZ022-050-052-280900-
EAST CENTRAL WISCONSIN

CITY           SKY/WX    TMP DP  RH WIND       PRES   REMARKS
STURGEON BAY   CLOUDY    19  16  86 CALM      30.26F
MANITOWOC      PTCLDY    19  14  81 CALM      30.26F
SHEBOYGAN      PTCLDY    24  18  77 CALM      30.25R
$$

LMZ563-521-522-541>543-280900-
LAKESHORE

STATION/POSITION TIME  TEMP    WIND        PRES    VSBY  WAVE
                       AIR SEA DIR/SP/G                  HT/PER
                 (UTC) (F)     (DEG/KT/KT) (MB)    (MI)  (FT/S)
SHEBOYGAN LKSHOR 0800   26     280/  5/  6 1026.0R
KEWAUNEE LKSHORE 0800   22      CALM  /  3 1023.6F
NORTHPORT PIER   0800   18     230/  2/  3 1024.4F
SISTER BAY LKSHO 0800   15        CALM       N/A
CHAMBERS ISLAND  0800   19     180/  2/  5 1024.4S
MENOMINEE LKSHOR 0800   20     180/  4     1024.7F
$$


USA.gov is the U.S. government's official web portal to all federal, state and local government web resources and services.